Location: Montreal
(45.5000°N, 73.5833°W)
Time: 06:25:07
(UTC-04:00)

N. Korean satellite - Pass Details

Date: 14 October 2017
Orbit: 459 x 517 km, 97.2° (Epoch: 20 October)

Event Time Altitude Azimuth Distance (km) Brightness Sun altitude
Rises 19:23:47 0° 186° (S) 2,545 10.3 -13.7°
Reaches altitude 10° 19:25:59 10° 196° (SSW) 1,659 9.4 -14.1°
Maximum altitude 19:29:15 34° 263° (W) 809 8.4 -14.6°
Drops below altitude 10° 19:32:30 10° 330° (NNW) 1,645 9.7 -15.2°
Sets 19:34:41 0° 339° (NNW) 2,519 10.5 -15.6°
